Погода в Ярках

Россия / Новосибирская область     54°08′53″N   83°16′35″E
темп.,
°C
ветер,
м/с
пор.,
м/с
влажн.,
%
обл.,
%
осадки,
мм/ч
давл.,
гПа
погр.,
м
21 апреля, ср
ср2101:00−8ююз368485 0.0 102690
04:00−6ююз4883100 0.0 1024213
07:00−6ююз4979100 0.0 1023339
10:00−3ююз5866100 0.0 1022922
13:00−1юз4657100 0.0 10211427
16:00−2юз3487100 0.1 1022616
19:00−1юв348494 0.3 1023389
22:00−4в3597100 0.1 1026143
22 апреля, чт
чт2201:00−3в3596100 0.4 1029260
04:00−6ссв259535 0.0 103173
07:00−5ссв410885 0.0 1034244
10:00−1ссв69713 0.0 1037962
13:00+1св695968 0.1 10381730
16:00+2св685698 0.2 10391502
19:00+1ссв6106163 0.4 1041592
22:00−2ссв410795 0.0 1043218
23 апреля, пт
пт2301:00−3ссв411835 0.0 1043326
04:00−3ссв410905 0.0 1043281
07:00−3ссв510925 0.0 1044291
10:00+1ссв69725 0.0 1044819
13:00+3св6950100 0.0 10421858
16:00+5св7944100 0.0 10411987
19:00+4св585814 0.0 1041361
22:000св357371 0.0 104276
24 апреля, сб
сб2401:00−1ссв4108332 0.0 1041244
04:00−1ссв4108820 0.0 1039244
07:00−1с5118739 0.0 1038338
10:00+2ссв6968100 0.0 1037878
13:00+5ссв675390 0.0 10351642
16:00+6ссв6849100 0.0 10341955
19:00+4ссв486388 0.0 1033273
22:00+1с34755 0.0 103453
25 апреля, вс
вс2501:000с33815 0.0 103441
04:00−1с23825 0.0 103428
07:00−1ссз24855 0.0 103475
10:00+4с33675 0.0 1034566
13:00+6сз22565 0.0 10341150
16:00+8зсз225235 0.0 10331381
19:00+7з1157100 0.0 1032778
22:00+5всв006894 0.0 103310